星链-36969(STARLINK-36969)

导读

STARLINK-36969(NORAD编号68167)是美国太空探索技术公司(SpaceX)研发运营的星链(Starlink)低轨互联网星座卫星,属于Starlink v1.5平台卫星,目前仍在轨正常工作。 该卫星运行于近地轨道,轨道倾角约97.603°,近地点约549.11km、远地点约549.92km,轨道周期约95.64分钟,每天绕地球约15圈。作为星链星座的组成部分,它配备相控阵天线,为全球范围提供低延迟卫星互联网接入服务,是SpaceX实现全球卫星互联网组网的重要节点。

基本信息
目录编号:
68167
目录名称:
STARLINK-36969
国际标识:
2026-050A
轨道中心:
EARTH
卫星名称:
星链-36969
卫星全名:
星链-36969(STARLINK-36969)
卫星状态:
在轨 (已飞行174 天)
发射日期:
2026-03-14 UTC
国别 :
美国 (US)
星等 :
--
轨道信息
数据来源 国际轨道数据
星历时间: 2026-09-03T14:24:47+0800
23小时前
查看轨道信息
半长轴: 6840.824km
偏心率: 0.0001271
轨道倾角: 53.157°
近地点辐角 76.025°
升交点赤经 158.200°
平近点角 284.089°
近地点: 461.817km
远地点: 463.557km
周期: 93.847分钟
每日圈数: 15.344057
详细信息
固有亮度:
5
最大亮度:
2.5
卫星平台:
Starlink V1.0
覆盖范围:
全球
运营商:
太空探索技术公司
运营商所在国:
美国
制造商(研发单位):
太空探索技术公司
制造商所在国:
美国
使用方式:
暂无
卫星简介
Starlink 计划是 SpaceX 推出的全球卫星互联网项目,通过发射低轨道卫星,为全球尤其是偏远地区提供高速、低延迟的互联网服务。自 2019 年起,Starlink 已部署数千颗卫星,旨在缩小全球数字鸿沟,推动互联网普及。该项目还为军事、航空等行业提供通信支持,带来广泛经济效益。
2D轨道图
3D轨道图
轨道高度分析图
轨道倾角分析图
轨道综合分析图
查看轨道综合分析图
交会数据列表
事件ID 空间交会对象 最接近时刻(TCA) 交会距离 交会风险概率(CRP) 交会风险指数(CRI) 操作
CDM_260828-040006-307106-816722
2026-08-28T
04:00:11+0000
1.176 km
极远距离
8.544182E-6 低风险 0.54
CDM_260905-003503-560206-816721
2026-09-05T
00:35:21+0000
1.847 km
极远距离
3.359216E-6 低风险 0.46
CDM_260828-053306-307106-816721
2026-08-28T
05:33:58+0000
1.862 km
极远距离
2.023868E-6 低风险 0.41
CDM_260828-022606-307106-816722
2026-08-28T
02:26:23+0000
1.953 km
极远距离
1.792384E-6 低风险 0.4
CDM_260828-070706-307106-816721
2026-08-28T
07:07:46+0000
3.000 km
极远距离
8.328292E-7 极低风险 0.33
CDM_260827-235605-361206-816721
2026-08-27T
23:56:06+0000
2.985 km
极远距离
3.607105E-7 极低风险 0.26